"Pseudo-MPEC" for C420EQ1

Created 2023 Nov 23 2:22:05 UT using Find_Orb

Click here for an explanation of pseudo-MPECs

 
 Astrometry: 
     C420EQ1*1C2023 11 20.39191404 11 26.254+20 29 04.42   ~BKAMx19.43GVNEOCP703
     C420EQ1 1C2023 11 20.39722704 11 26.279+20 29 12.23   ~BKAM       VNEOCP703
     C420EQ1 1C2023 11 20.40254204 11 26.250+20 29 18.38   ~BKAM 19.94GVNEOCP703
     C420EQ1 1C2023 11 20.40785704 11 26.102+20 29 24.61   ~BKAM 20.15GVNEOCP703
     C420EQ1 2C2023 11 22=y-yy6N+?d.JyeX#0Qv/D@;py9h$OAstrometry,A(:t[*HfIfuMV39
     C420EQ1 2C2023 11 22e:lCVNneL4ZBhsdlq3^ea@o/`rO5F:Pl7HHe47QH3sBQexHR]g9WV39
     C420EQ1 2C2023 11 226=/QS/k)!\+#GGk8R:%K6VjhYBKF5\77h-/3jdougpBYbOMgTcDEV39
     C420EQ1 2C2023 11 22QWgWWW9nnmn7WJjAtecDbv-kItEfrjq)2redacted;NaiBU]5$t6V39
     C420EQ1 1C2023 11 22.32777504 11 01.039+21 08 07.40   ~BM8b 19.78GVNEOCPG96
     C420EQ1 1C2023 11 22.33289804 11 00.910+21 08 13.63   ~BM8b 19.72GVNEOCPG96
     C420EQ1 1C2023 11 22.33802604 11 00.798+21 08 20.51   ~BM8b       VNEOCPG96
     C420EQ1 1C2023 11 22.34315304 11 00.676+21 08 26.52   ~BM8b 20.03GVNEOCPG96
     C420EQ1 KC2023 11 22[yZWMFtqbp$SsSx_%C0/U_pD'%[p)0,?cgv6gp-)@f6msh,x1afUL01
     C420EQ1 KC2023 11 221d\7-tdm9Mclick4i=hereU9$^Yjtcc2NO#;*5YA3NQAnX0]uewJL01
     C420EQ1 KC2023 11 220Dx7b;#$jR[_7prXP,`Q]'yk\kW3E'xjYiRul0eyk$6vnl\Tw@5vL01
     C420EQ1 KB2023 11 226'3'^F'?xqxg#M4383XINmqAO%rIno_O(Ag(H,'s_Hv2\c%IuuLJ958
     C420EQ1 KB2023 11 23hCEr=Aq2[Fnhw$t$Q3'Fcj%f?9iC64;m,\d=dgsRdQ'B(:H/:eS?958
     C420EQ1 KB2023 11 23RstE=5+2(7nl/f1P9=:kD6s99]-$6'0c!/ZrEefor*MVRt?+p2d#958
     C420EQ1 KC2023 11 23!!vn:3!rJ()g]lGU7f_eBl9dD2vPy!QPoEcqgSexplanation!U7204
     C420EQ1 KC2023 11 23ml_i,JeRc[aG9axl=)B2O`]mMkH\(;9NT(4$GfA))\PvxNh;Xe'a204
     C420EQ1 KC2023 11 23K?.R0V5lKNt0/^1OZnXE.nMw/_bkFg0T?td.@66:#T2S4e+%tySK204

Station data:
(204) Schiaparelli Observatory  (N45.867930 E8.770800)  Italy.  Observer L.
   Buzzi. 0.60-m f/4.64 Newtonian + CCD0.84-m f/3.5 reflector + CCD.
(703) Catalina Sky Survey  (N32.417003 W110.732640)  US/Arizona.  Observer E.
   J. Christensen. 0.68 m Schmidt + 10K CCD.
(958) Observatoire de Dax  (N43.693324 W1.030390)  France.  Observer P.
   Dupouy. 0.32-m Schmidt-Cassegrain.
(G96) Mt. Lemmon Survey  (N32.442751 W110.788720)  US/Arizona.  Observer E.
   J. Christensen. 1.5-m reflector + 10K CCD.
(L01) Višnjan Observatory, Tičan  (N45.290897 E13.749300)  Croatia.
   Observers K. Korlević, D. Pujagic, V. Dobos. Measurers D. Pujagic, K.
   Korlević. 1.0-m f/2.9 reflector + CCD.
(V39) McDonald Observatory-LCO ELP B  (N30.680025 W104.015480)  US/Texas.
   Observer J. D. Armstrong. Measurer T. Lister. 1.0-m f/8.0 Ritchey-Chrétien
   + CCD.

Orbital elements:  C420EQ1
   Perihelion 2024 Jan 23.09696 +/- 0.0827 TT =  2:19:37 (JD 2460332.59696)
Epoch 2023 Nov 23.0 TT = JDT 2460271.5   Earth MOID: 0.1478   Ju: 0.5418
M 348.53042496 +/- 0.40             Ma: 0.0364                   AutoNEOCP
n   0.18772741 +/- 0.00692          Peri.   59.53622 +/- 0.22
a   3.02076944 +/- 0.0717           Node    60.71972 +/- 0.011
e   0.6408928 +/- 0.00879           Incl.    7.35700 +/- 0.08
P   5.25                   H 21.28  G  0.15   U  9.4
q 1.08477998 +/- 0.00262    Q 4.95675890 +/- 0.143        (J2000 ecliptic)
20 of 21 observations 2023 Nov. 20-23; mean residual 0".26
Residuals in arcseconds: 
231120 703( 2.4-  1.9-)   231122 V39  .05+  .07+    231122 L01  .15-  .52-    
231120 703  .57-  .12-    231122 G96  .17+  .02+    231122 958  .66-  .31-    
231120 703  .52+  .04-    231122 G96  .08+  .16-    231123 958  .15-  .23+    
231120 703  .09-  .14+    231122 G96  .24+  .31+    231123 958  .64-  .26+    
231122 V39  .06-  .01+    231122 G96  .25+  .09-    231123 204  .23+  .07-    
231122 V39  .07-  .03+    231122 L01  .33+  .11+    231123 204  .20+  .09-    
231122 V39  .09-  .04-    231122 L01  .16+  .29+    231123 204  .31+  .00     

Ephemerides (geocentric):
Date (UTC) HH   RA             Dec           delta  r     elong  mag " sig PA
---- --------  ------------   ------------  ------ ------ -----  --- --------
2023 11 23 02  04 10 49.713   +21 24 15.90  .35034 1.3371 175.4 20.0 .136 141
2023 11 23 03  04 10 49.061   +21 25 09.89  .35004 1.3368 175.5 20.0 .139 140
2023 11 23 04  04 10 48.407   +21 26 03.98  .34973 1.3365 175.5 20.0 .142 138
2023 11 23 05  04 10 47.750   +21 26 58.15  .34943 1.3362 175.6 19.9 .146 137
2023 11 23 06  04 10 47.091   +21 27 52.41  .34913 1.3360 175.6 19.9 .149 136
2023 11 23 07  04 10 46.431   +21 28 46.77  .34883 1.3357 175.6 19.9 .153 135
2023 11 23 08  04 10 45.768   +21 29 41.21  .34853 1.3354 175.7 19.9 .157 134
2023 11 23 09  04 10 45.103   +21 30 35.74  .34823 1.3351 175.7 19.9 .160 133
2023 11 23 10  04 10 44.435   +21 31 30.37  .34793 1.3348 175.8 19.9 .164 132
2023 11 23 11  04 10 43.766   +21 32 25.08  .34763 1.3345 175.8 19.9 .168 130
2023 11 23 12  04 10 43.094   +21 33 19.89  .34734 1.3342 175.8 19.9 .172 129
2023 11 23 13  04 10 42.421   +21 34 14.78  .34704 1.3339 175.9 19.9 .177 129
2023 11 23 14  04 10 41.745   +21 35 09.77  .34674 1.3336 175.9 19.9 .181 128
2023 11 23 15  04 10 41.067   +21 36 04.84  .34644 1.3333 176.0 19.9 .185 127
2023 11 23 16  04 10 40.387   +21 37 00.01  .34614 1.3330 176.0 19.9 .189 126
2023 11 23 17  04 10 39.705   +21 37 55.27  .34584 1.3327 176.0 19.9 .194 125
2023 11 23 18  04 10 39.021   +21 38 50.62  .34555 1.3324 176.1 19.9 .198 124
2023 11 23 19  04 10 38.335   +21 39 46.06  .34525 1.3321 176.1 19.9 .203 123
2023 11 23 20  04 10 37.646   +21 40 41.59  .34495 1.3318 176.2 19.9 .208 122
2023 11 23 21  04 10 36.956   +21 41 37.22  .34466 1.3315 176.2 19.9 .212 122
2023 11 23 22  04 10 36.264   +21 42 32.93  .34436 1.3313 176.2 19.9 .217 121
2023 11 23 23  04 10 35.569   +21 43 28.74  .34406 1.3310 176.3 19.9 .222 120
2023 11 24 00  04 10 34.872   +21 44 24.64  .34377 1.3307 176.3 19.9 .227 120
2023 11 24 01  04 10 34.174   +21 45 20.63  .34347 1.3304 176.3 19.9 .232 119
2023 11 24 02  04 10 33.473   +21 46 16.71  .34318 1.3301 176.4 19.9 .237 118
2023 11 24 03  04 10 32.770   +21 47 12.89  .34288 1.3298 176.4 19.9 .242 118
2023 11 24 04  04 10 32.065   +21 48 09.16  .34259 1.3295 176.5 19.9 .247 117
2023 11 24 05  04 10 31.358   +21 49 05.52  .34229 1.3292 176.5 19.8 .253 116
2023 11 24 06  04 10 30.649   +21 50 01.97  .34200 1.3289 176.5 19.8 .258 116
2023 11 24 07  04 10 29.938   +21 50 58.52  .34170 1.3286 176.6 19.8 .263 115
2023 11 24 08  04 10 29.225   +21 51 55.16  .34141 1.3283 176.6 19.8 .269 114
2023 11 24 09  04 10 28.510   +21 52 51.89  .34112 1.3280 176.6 19.8 .274 114
2023 11 24 10  04 10 27.793   +21 53 48.71  .34082 1.3277 176.7 19.8 .279 113
2023 11 24 11  04 10 27.074   +21 54 45.63  .34053 1.3275 176.7 19.8 .285 113
2023 11 24 12  04 10 26.353   +21 55 42.64  .34024 1.3272 176.8 19.8 .291 112
2023 11 24 13  04 10 25.630   +21 56 39.75  .33994 1.3269 176.8 19.8 .296 112
2023 11 24 14  04 10 24.905   +21 57 36.95  .33965 1.3266 176.8 19.8 .302 111
2023 11 24 15  04 10 24.178   +21 58 34.24  .33936 1.3263 176.9 19.8 .308 111
2023 11 24 16  04 10 23.449   +21 59 31.63  .33907 1.3260 176.9 19.8 .314 110
2023 11 24 17  04 10 22.718   +22 00 29.11  .33878 1.3257 176.9 19.8 .319 110
2023 11 24 18  04 10 21.985   +22 01 26.69  .33848 1.3254 177.0 19.8 .325 109
2023 11 24 19  04 10 21.250   +22 02 24.36  .33819 1.3251 177.0 19.8 .331 109
2023 11 24 20  04 10 20.513   +22 03 22.12  .33790 1.3248 177.0 19.8 .337 108
2023 11 24 21  04 10 19.774   +22 04 19.98  .33761 1.3245 177.1 19.8 .343 108
2023 11 24 22  04 10 19.033   +22 05 17.93  .33732 1.3243 177.1 19.8 .349 107
2023 11 24 23  04 10 18.290   +22 06 15.98  .33703 1.3240 177.1 19.8 .356 107
2023 11 25 00  04 10 17.545   +22 07 14.12  .33674 1.3237 177.2 19.8 .362 107
2023 11 25 01  04 10 16.798   +22 08 12.36  .33645 1.3234 177.2 19.8 .368 106